User: anonymous   Login
Location: Unspecified
(30.8073°N, 0.0000°E)
Time: 20:28:04
(UTC+00:00)
Language:

PRISM - Orbit

View from above orbital plane
View from above orbital plane
View from above satellite
View from above satellite

Ground track
Ground track

The orbit data is extracted from the following two-line orbital elements,

1 33493U 09002B   20299.11696801  .00000957  00000-0  88240-4 0  9994
2 33493  98.1556 244.8667 0014845 350.4243   9.6692 14.97187137639118
Epoch (UTC): 25 October 2020 02:48:26
Eccentricity: 0.0014845
inclination: 98.1556°
perigee height: 565 km
apogee height: 586 km
right ascension of ascending node: 244.8667°
argument of perigee: 350.4243°
revolutions per day: 14.97187137
mean anomaly at epoch: 9.6692°
orbit number at epoch: 63911

The dashed part of the orbit path shows where the satellite is in the earth's shadow,  

DLR